Regional Weather Roundup
Issued by NWS

Home | Current Version | Previous Version | Graphics & Text | Print | Product List | Glossary On
Versions: 1 2 3 4 5 6 7 8 9 10 11 12 13 14 15 16 17 18 19 20 21 22 23 24 25 26 27 28 29 30 31 32 33 34 35 36 37 38 39 40 41 42 43 44 45 46 47 48 49 50
000
ASUS45 KCYS 011210
RWRWY

WYOMING REGIONAL WEATHER ROUNDUP
NATIONAL WEATHER SERVICE CHEYENNE WY
600 AM MDT TUE SEP 01 2015

NOTE:  "FAIR" INDICATES FEW OR NO CLOUDS BELOW 12,000 FEET
WITH NO SIGNIFICANT WEATHER AND/OR OBSTRUCTIONS TO VISIBILITY.

WYZ001-011300-
YELLOWSTONE NATIONAL PARK

CITY           SKY/WX    TMP DP  RH WIND       PRES   REMARKS
LK YELLOWSTONE   N/A     32  29  88 NW3       30.21S
6HR MIN TEMP:  32; 6HR MAX TEMP:  38;

W YELLOWSTONE  NOT AVBL

$$
WYZ002>013-054>058-071-098>099-011300-
NORTHERN WYOMING

CITY           SKY/WX    TMP DP  RH WIND       PRES   REMARKS
JACKSON        FAIR      36  30  80 N5        30.15R WCI  32
CODY           FAIR      54  28  37 SE5       29.97S
GREYBULL       FAIR      51  32  48 SE6       29.93S
6HR MIN TEMP:  48; 6HR MAX TEMP:  66;

WORLAND        FAIR      52  29  41 S5        29.94R
6HR MIN TEMP:  48; 6HR MAX TEMP:  61;

SHERIDAN       FAIR      49  41  74 NW3       29.92R
6HR MIN TEMP:  47; 6HR MAX TEMP:  56;

BUFFALO        FAIR      59  32  36 SW10      29.98S
6HR MIN TEMP:  56; 6HR MAX TEMP:  64;

GILLETTE       FAIR      59  45  59 SW7       29.94S
6HR MIN TEMP:  50; 6HR MAX TEMP:  61;

HULETT         FAIR      52  45  76 S8        29.94S
NEWCASTLE      FAIR      59  43  55 SE9       29.97S

$$
WYZ014>020-022>026-101>103-011300-
CENTRAL WYOMING

CITY           SKY/WX    TMP DP  RH WIND       PRES   REMARKS
BIG PINEY      FAIR      36  21  54 N3        30.19S
6HR MIN TEMP:  36; 6HR MAX TEMP:  49;

PINEDALE       FAIR      32  28  86 W7        30.21S WCI  26
DUBOIS         FAIR      45  25  45 NW13      30.15R
LANDER         FAIR      53  26  35 NW7       30.04R
6HR MIN TEMP:  50; 6HR MAX TEMP:  65;

RIVERTON       FAIR      53  31  42 NE3       30.05R
6HR MIN TEMP:  50; 6HR MAX TEMP:  65;

CASPER         FAIR      59  41  51 SW15      30.05R
6HR MIN TEMP:  58; 6HR MAX TEMP:  67;

DOUGLAS        FAIR      51  40  65 CALM      30.03S
6HR MIN TEMP:  50; 6HR MAX TEMP:  65;


$$
WYZ021-027>030-104>119-011300-
SOUTHERN WYOMING

CITY           SKY/WX    TMP DP  RH WIND       PRES   REMARKS
EVANSTON       FAIR      54  38  54 SE7       30.17F
6HR MIN TEMP:  53; 6HR MAX TEMP:  61;

KEMMERER       FAIR      43  30  61 N9        30.19S
FORT BRIDGER   SUNNY     57  37  47 SW6       30.20S
ROCK SPRINGS   FAIR      54  41  61 SE9       30.17R
6HR MIN TEMP:  54; 6HR MAX TEMP:  62;

DIXON          FAIR      47  43  85 CALM      30.23S
RAWLINS        FAIR      51  39  63 E7        30.19R
6HR MIN TEMP:  49; 6HR MAX TEMP:  62;

SARATOGA       FAIR      50  43  76 S8        30.23R
LARAMIE        FAIR      45  40  82 S9        30.22S
6HR MIN TEMP:  44; 6HR MAX TEMP:  54;

CHEYENNE       FAIR      53  43  68 W7        30.13S
6HR MIN TEMP:  51; 6HR MAX TEMP:  56;

TORRINGTON     FAIR      53  47  79 SE3       30.00R
6HR MIN TEMP:  50; 6HR MAX TEMP:  66;

PINE BLUFFS    FAIR      48  46  93 SW3       30.08S

$$


USA.gov is the U.S. government's official web portal to all federal, state and local government web resources and services.